Location: Newark
(33.6439°N, 114.9881°W)
Time: 11:58:10
(UTC+00:00)

Tiros 1 - Pass Details

Date: 27 July 2019
Orbit: 630 x 664 km, 48.4° (Epoch: 21 August)

Event Time Altitude Azimuth Distance (km) Brightness Sun altitude
Rises 23:22:29 0° 311° (NW) 2,996 11.1 40.1°
Reaches altitude 10° 23:24:52 10° 314° (NW) 2,081 10.4 39.6°
Maximum altitude 23:29:38 62° 36° (NE) 742 7.8 38.6°
Drops below altitude 10° 23:34:21 10° 117° (ESE) 2,062 9.4 37.6°
Sets 23:36:43 0° 121° (ESE) 2,966 10.1 37.1°
